EW8415 Weather Reports


time (UTC)temp
C
wind
direction
speed
KPH
gust
KPH
rain 1hr
cm
rain 24hr
cm
rain mn
cm
humidity
%
barometer
mb
20260510033029 21 126 0.0 1.6 0.00 0.00 0.00 82 1013.4
20260510031526 21 121 0.0 1.6 0.00 0.00 0.00 80 1013.1
20260510030027 21 121 0.0 3.2 0.00 0.00 0.00 80 1012.9
20260510024527 21 121 0.0 1.6 0.00 0.00 0.00 80 1012.7
20260510023027 21 121 0.0 0.0 0.00 0.00 0.00 79 1012.5
20260510021529 22 121 0.0 1.6 0.00 0.00 0.00 78 1012.3
20260510020024 22 69 0.0 0.0 0.00 0.00 0.00 78 1012.2
20260510014523 23 69 0.0 0.0 0.00 0.00 0.00 75 1012.0
20260510013023 23 69 0.0 0.0 0.00 0.00 0.00 73 1011.9
20260510011522 24 69 0.0 0.0 0.00 0.00 0.00 71 1011.7
20260510010022 25 69 0.0 1.6 0.00 0.00 0.00 69 1011.4
20260510004522 25 69 0.0 3.2 0.00 0.00 0.00 68 1011.3
20260510003021 25 67 0.0 4.8 0.00 0.00 0.00 68 1011.1
20260510001521 26 103 0.0 4.8 0.00 0.00 0.00 66 1010.9
20260510000021 26 98 0.0 4.8 0.00 0.00 0.00 66 1010.8
20260509234535 26 110 3.2 8.0 0.00 0.00 0.00 66 1010.6
20260509233019 26 76 1.6 8.0 0.00 0.00 0.00 64 1010.6
20260509231520 26 102 1.6 9.7 0.00 0.00 0.00 65 1010.5
20260509230019 27 88 1.6 9.7 0.00 0.00 0.00 63 1010.5
20260509224529 27 111 1.6 11.3 0.00 0.00 0.00 64 1010.4
20260509223017 27 78 1.6 8.0 0.00 0.00 0.00 62 1010.2
20260509221517 27 56 3.2 11.3 0.00 0.00 0.00 63 1010.1
20260509220019 27 123 6.4 12.9 0.00 0.00 0.00 59 1010.2
20260509214516 28 42 4.8 6.4 0.00 0.00 0.00 56 1010.1
20260509213014 28 235 1.6 6.4 0.00 0.00 0.00 59 1010.1
20260509211512 28 103 3.2 9.7 0.00 0.00 0.00 56 1010.2
20260509210010 27 223 0.0 6.4 0.00 0.00 0.00 56 1010.4
20260509204507 27 118 3.2 9.7 0.00 0.00 0.00 59 1010.5
20260509203010 26 120 1.6 8.0 0.00 0.00 0.00 63 1010.6
20260509201505 26 87 3.2 11.3 0.00 0.00 0.00 61 1010.9
20260509200006 26 127 1.6 6.4 0.00 0.00 0.00 60 1011.2
20260509194505 27 54 3.2 8.0 0.00 0.00 0.00 59 1011.3
20260509193007 27 31 3.2 12.9 0.00 0.00 0.00 59 1011.4
20260509191502 27 132 1.6 9.7 0.00 0.00 0.00 60 1011.5
20260509190100 27 130 3.2 12.9 0.00 0.00 0.00 60 1011.5
20260509190001 27 61 1.6 12.9 0.00 0.00 0.00 60 1011.5
20260509184601 27 154 1.6 6.4 0.00 0.00 0.00 60 1011.6
20260509183055 26 106 3.2 6.4 0.00 0.00 0.00 63 1011.7
20260509181607 26 291 4.8 11.3 0.00 0.00 0.00 62 1011.8
20260509180111 26 253 0.0 8.0 0.00 0.00 0.00 66 1012.0
20260509174546 25 282 3.2 9.7 0.00 0.00 0.00 64 1012.0
20260509173049 25 343 4.8 9.7 0.00 0.00 0.00 65 1012.2
20260509171550 25 315 1.6 11.3 0.00 0.00 0.00 66 1012.4
20260509170048 25 54 6.4 9.7 0.00 0.00 0.00 68 1012.4
20260509164535 24 27 3.2 12.9 0.00 0.00 0.00 71 1012.3
20260509163036 24 77 4.8 9.7 0.00 0.00 0.00 71 1012.2
20260509161531 23 219 1.6 14.5 0.00 0.00 0.00 73 1012.1
20260509160030 23 74 3.2 9.7 0.00 0.00 0.00 73 1012.2
20260509154525 23 47 1.6 9.7 0.00 0.00 0.00 73 1012.1
20260509153025 22 307 0.0 8.0 0.00 0.00 0.00 76 1012.1
20260509151519 22 341 0.0 6.4 0.00 0.00 0.00 80 1012.2
20260509150014 21 20 0.0 6.4 0.00 0.00 0.00 80 1012.3
20260509144515 20 84 0.0 3.2 0.00 0.00 0.00 81 1012.3
20260509143011 20 36 0.0 4.8 0.00 0.00 0.00 82 1012.4
20260509141507 19 186 0.0 3.2 0.00 0.00 0.00 83 1012.6
20260509140100 18 169 0.0 1.6 0.00 0.00 0.00 85 1012.9
20260509134556 18 173 0.0 3.2 0.00 0.00 0.00 85 1012.9
20260509133104 17 175 0.0 3.2 0.00 0.00 0.00 86 1013.0
20260509131547 16 179 0.0 3.2 0.00 0.00 0.00 86 1012.9
20260509130048 16 146 0.0 1.6 0.00 0.00 0.00 85 1012.8
20260509124547 15 146 0.0 3.2 0.00 0.00 0.00 85 1012.7
20260509123041 15 98 0.0 0.0 0.00 0.00 0.00 84 1012.6
20260509121547 13 98 0.0 0.0 0.00 0.00 0.00 83 1012.5
20260509120039 13 98 0.0 0.0 0.00 0.00 0.00 84 1012.3
20260509114538 12 98 0.0 0.0 0.00 0.00 0.00 85 1012.2
20260509113039 12 98 0.0 0.0 0.00 0.00 0.00 85 1011.9
20260509111538 12 98 0.0 0.0 0.00 0.00 0.00 85 1011.7
20260509110037 12 104 0.0 0.0 0.00 0.00 0.00 85 1011.6
20260509104548 12 104 0.0 0.0 0.00 0.00 0.00 86 1011.2
20260509103035 12 104 0.0 0.0 0.00 0.00 0.00 86 1010.8
20260509101537 13 104 0.0 0.0 0.00 0.00 0.00 86 1010.7
20260509100032 13 104 0.0 0.0 0.00 0.00 0.00 86 1010.7
20260509094533 13 104 0.0 0.0 0.00 0.00 0.00 86 1010.8
20260509093029 13 104 0.0 0.0 0.00 0.00 0.00 86 1010.8
20260509091530 13 104 0.0 0.0 0.00 0.00 0.00 86 1010.8
20260509090032 13 104 0.0 3.2 0.00 0.00 0.00 86 1011.0
20260509084522 14 104 0.0 0.0 0.00 0.00 0.00 86 1010.9
20260509083021 14 104 0.0 0.0 0.00 0.00 0.00 86 1010.7
20260509081525 15 104 0.0 0.0 0.00 0.00 0.00 86 1010.4
20260509080018 15 104 0.0 3.2 0.00 0.00 0.00 86 1010.7
20260509074516 15 101 0.0 0.0 0.00 0.00 0.00 86 1010.9
20260509073034 15 103 0.0 0.0 0.00 0.00 0.00 86 1011.1
20260509071516 15 103 0.0 1.6 0.00 0.00 0.00 86 1011.0
20260509070032 15 103 0.0 0.0 0.00 0.00 0.00 86 1011.0
20260509064512 15 103 0.0 6.4 0.00 0.00 0.00 86 1011.1
20260509063017 15 295 0.0 1.6 0.00 0.00 0.00 86 1011.1
20260509061509 14 292 0.0 1.6 0.00 0.00 0.00 86 1011.4
20260509060008 14 292 0.0 6.4 0.00 0.00 0.00 86 1011.5
20260509054506 15 161 0.0 0.0 0.00 0.00 0.00 86 1011.7
20260509053007 15 161 0.0 1.6 0.00 0.00 0.00 86 1011.9
20260509051601 15 161 0.0 0.0 0.00 0.00 0.00 85 1012.3
20260509050058 15 161 0.0 1.6 0.00 0.00 0.00 85 1012.8
20260509044556 15 161 0.0 0.0 0.00 0.00 0.00 86 1013.1
20260509043055 15 161 0.0 1.6 0.00 0.00 0.00 85 1013.2
20260509041556 15 161 0.0 1.6 0.00 0.00 0.00 85 1013.2
20260509040055 15 161 0.0 0.0 0.00 0.00 0.00 85 1013.6
20260509034554 15 161 0.0 0.0 0.00 0.00 0.00 85 1013.5